Location: Unspecified
(52.4292°N, 19.3359°E)
Time: 12:51:16
(UTC+02:00)

Altair - All Passes

Search period start: 19 May 2024 00:00
Search period end: 29 May 2024 00:00
Orbit: 1501 x 1682 km, 47.2° (Epoch: 18 May)

Date Brightness Start Highest point End Pass type
(mag) Time Alt. Az. Time Alt. Az. Time Alt. Az.
19 May - 09:31:52 10° SSE 09:36:27 14° SE 09:41:04 10° E daylight
19 May - 11:30:00 10° SSW 11:38:56 40° SE 11:48:03 10° E daylight
19 May - 13:32:51 10° WSW 13:42:44 64° S 13:52:43 10° E daylight
19 May - 15:37:06 10° W 15:47:03 62° SSW 15:56:56 10° ESE daylight
19 May - 17:41:50 10° W 17:50:45 37° SW 17:59:32 10° SSE daylight
19 May - 19:49:49 10° WSW 19:53:05 12° WSW 19:56:21 10° SW daylight
20 May - 09:07:45 10° SE 09:11:26 13° ESE 09:15:10 10° E daylight
20 May - 11:05:01 10° SSW 11:13:49 38° SE 11:22:47 10° E daylight
20 May - 13:07:41 10° WSW 13:17:32 62° SSE 13:27:30 10° E daylight
20 May - 15:11:53 10° W 15:21:50 63° SSW 15:31:46 10° ESE daylight
20 May - 17:16:34 10° W 17:25:36 39° SW 17:34:34 10° SSE daylight
20 May - 19:23:47 10° W 19:28:04 14° WSW 19:32:21 10° SSW daylight
21 May - 08:44:02 10° SE 08:46:26 11° ESE 08:48:51 10° ESE daylight
21 May - 10:40:04 10° SSW 10:48:42 35° SE 10:57:29 10° E daylight
21 May - 12:42:32 10° WSW 12:52:20 61° SSE 13:02:16 10° E daylight
21 May - 14:46:41 10° W 14:56:38 64° S 15:06:35 10° ESE daylight
21 May - 16:51:18 10° W 17:00:29 41° SSW 17:09:34 10° SSE daylight
21 May - 18:57:59 10° W 19:03:03 15° SW 19:08:05 10° SSW daylight
22 May - 10:15:09 10° SSW 10:23:35 33° SE 10:32:12 10° E daylight
22 May - 12:17:24 10° WSW 12:27:08 60° SSE 12:37:03 10° E daylight
22 May - 14:21:29 10° W 14:31:25 65° S 14:41:24 10° ESE daylight
22 May - 16:26:03 10° W 16:35:20 43° SSW 16:44:34 10° SE daylight
22 May - 18:32:21 10° W 18:38:02 17° SW 18:43:41 10° SSW daylight
23 May - 09:50:16 10° SSW 09:58:29 31° SE 10:06:53 10° E daylight
23 May - 11:52:16 10° WSW 12:01:56 58° SSE 12:11:48 10° E daylight
23 May - 13:56:16 10° W 14:06:12 66° S 14:16:13 10° ESE daylight
23 May - 16:00:48 10° W 16:10:11 45° SSW 16:19:32 10° SE daylight
23 May - 18:06:46 10° W 18:12:59 18° SW 18:19:10 10° SSW daylight
24 May - 09:25:24 10° SSW 09:33:23 29° SE 09:41:34 10° E daylight
24 May - 11:27:09 10° SW 11:36:45 57° SSE 11:46:34 10° E daylight
24 May - 13:31:04 10° W 13:40:59 66° S 13:51:01 10° ESE daylight
24 May - 15:35:33 10° W 15:45:02 47° SSW 15:54:29 10° SE daylight
24 May - 17:41:16 10° W 17:47:57 20° SW 17:54:34 10° S daylight
25 May - 09:00:35 10° S 09:08:19 27° SE 09:16:13 10° E daylight
25 May - 11:02:02 10° SW 11:11:34 55° SSE 11:21:21 10° E daylight
25 May - 13:05:52 10° W 13:15:46 66° S 13:25:49 10° ESE daylight
25 May - 15:10:19 10° W 15:19:52 49° SSW 15:29:24 10° SE daylight
25 May - 17:15:49 10° W 17:22:53 22° SW 17:29:54 10° S daylight
26 May - 08:35:48 10° S 08:43:15 25° SE 08:50:51 10° E daylight
26 May - 10:36:57 10° SW 10:46:24 53° SSE 10:56:06 10° E daylight
26 May - 12:40:41 10° W 12:50:34 67° S 13:00:36 10° ESE daylight
26 May - 14:45:06 10° W 14:54:42 51° SSW 15:04:19 10° SE daylight
26 May - 16:50:25 10° W 16:57:49 24° SW 17:05:11 10° S daylight
27 May - 08:11:03 10° S 08:18:11 24° SE 08:25:28 10° E daylight
27 May - 10:11:52 10° SW 10:21:14 51° SSE 10:30:51 10° E daylight
27 May - 12:15:29 10° WSW 12:25:21 67° S 12:35:23 10° E daylight
27 May - 14:19:53 10° W 14:29:31 53° SSW 14:39:13 10° SE daylight
27 May - 16:25:02 10° W 16:32:44 26° SW 16:40:25 10° S daylight
28 May - 07:46:22 10° S 07:53:08 22° SE 08:00:02 10° E daylight
28 May - 09:46:49 10° SW 09:56:04 49° SSE 10:05:36 10° E daylight
28 May - 11:50:19 10° WSW 12:00:07 66° S 12:10:10 10° E daylight
28 May - 13:54:39 10° W 14:04:20 55° SSW 14:14:05 10° SE daylight
28 May - 15:59:41 10° W 16:07:39 27° SW 16:15:36 10° S daylight
